View from above orbital plane
|
View from above satellite
|
Ground track
|
The orbit data is extracted from the following two-line orbital elements,
1 42834U 17042K 21025.15425917 .00000158 00000-0 21030-4 0 9993
2 42834 97.4921 262.7052 0011946 267.0201 92.9651 14.91451483192350
Epoch (UTC): | 25 January 2021 03:42:07 |
Eccentricity: | 0.0011946 |
inclination: | 97.4921° |
perigee height: | 585 km |
apogee height: | 602 km |
right ascension of ascending node: | 262.7052° |
argument of perigee: | 267.0201° |
revolutions per day: | 14.91451483 |
mean anomaly at epoch: | 92.9651° |
orbit number at epoch: | 19235 |
The dashed part of the orbit path shows where the satellite is in the earth's shadow,
|
|